This is the latest recevied weather packets stored in our database for station/object K6POO-1. If no packets are shown the sender has not sent any weather packets the latest 10 day(s).
| Time | Temp. | Humidity | Pressure | Rain* | Wind** | Luminosity | Snow |
|---|---|---|---|---|---|---|---|
| 1788460557 | 20.56° C | 70% | 1014.9 hPa | 0 mm | - | 255 W/m² | - |
| 1788460252 | 20.56° C | 69% | 1014.9 hPa | 0 mm | - | 220 W/m² | - |
| 1788459950 | 21.11° C | 69% | 1015 hPa | 0 mm | - | 232 W/m² | - |
| 1788459647 | 21.11° C | 69% | 1014.8 hPa | 0 mm | - | 270 W/m² | - |
| 1788459345 | 21.11° C | 69% | 1015.1 hPa | 0 mm | - | 291 W/m² | - |
| 1788459040 | 21.11° C | 69% | 1014.9 hPa | 0 mm | - | 323 W/m² | - |
| 1788458735 | 20.56° C | 70% | 1014.8 hPa | 0 mm | - | 402 W/m² | - |
| 1788458435 | 20.56° C | 69% | 1014.8 hPa | 0 mm | - | 631 W/m² | - |
| 1788458133 | 20.56° C | 70% | 1014.9 hPa | 0 mm | - | 388 W/m² | - |
| 1788457856 | 20.56° C | 69% | 1014.8 hPa | 0 mm | - | 473 W/m² | - |
| 1788457523 | 20.56° C | 70% | 1014.9 hPa | 0 mm | - | 912 W/m² | - |
| 1788457217 | 20.56° C | 70% | 1015 hPa | 0 mm | - | 413 W/m² | - |
| 1788456912 | 20.56° C | 70% | 1015 hPa | 0 mm | - | 439 W/m² | - |
| 1788456609 | 20° C | 70% | 1015 hPa | 0 mm | - | 425 W/m² | - |
| 1788456303 | 20° C | 71% | 1014.8 hPa | 0 mm | - | 377 W/m² | - |
| 1788455999 | 20° C | 71% | 1015 hPa | 0 mm | - | 321 W/m² | - |
| 1788455693 | 20° C | 71% | 1014.8 hPa | 0 mm | - | 341 W/m² | - |
| 1788455388 | 20° C | 72% | 1015.1 hPa | 0 mm | - | 347 W/m² | - |
| 1788455082 | 19.44° C | 72% | 1015.1 hPa | 0 mm | - | 337 W/m² | - |
| 1788454782 | 19.44° C | 73% | 1015.3 hPa | 0 mm | - | 323 W/m² | - |
| 1788454476 | 19.44° C | 73% | 1015.1 hPa | 0 mm | - | 309 W/m² | - |
| 1788454170 | 19.44° C | 74% | 1015.2 hPa | 0 mm | - | 304 W/m² | - |
| 1788453865 | 18.89° C | 74% | 1015.2 hPa | 0 mm | - | 281 W/m² | - |
| 1788453565 | 18.89° C | 75% | 1015.2 hPa | 0 mm | - | 263 W/m² | - |
| 1788453261 | 18.89° C | 76% | 1015.2 hPa | 0 mm | - | 249 W/m² | - |
* Rain latest hour (hover to see other rain measurements)
** Current wind speed in m/s (hover to see current wind gust speed)